White Plains, CT

1:59 AM EST on December 15, 2017 (GMT -0500)
Westchester County

Weather History for KHPN - May, 2014

Change the Weather History Date:

Tuesday, May 27, 2014

  Actual Average Record
Temperature  
Mean Temperature 74 °F -  
Max Temperature 84 °F 68 °F 86 °F (1985)
Min Temperature 62 °F 50 °F 44 °F (1997)
Cooling Degree Days 9    
Growing Degree Days 24 (Base 50)    
Moisture  
Dew Point 56 °F    
Average Humidity 55    
Maximum Humidity 84    
Minimum Humidity 38    
Precipitation  
Precipitation 0.00 in - - ()
Sea Level Pressure  
Sea Level Pressure 29.83 in    
Wind  
Wind Speed 5 mph (West)    
Max Wind Speed 9 mph    
Max Gust Speed 18 mph    
Visibility 10 miles    
Events      
Averages and records for this station are not official NWS values.
T = Trace of Precipitation, MM = Missing Value Source: NWS Daily Summary

Daily Weather History Graph

Daily Weather History Graph

Search for Another Location

Airport or City:

Trip Planner

Search our weather history database for the weather conditions in past years. The results will help you decide how hot, cold, wet, or windy it might be!

Date:

Astronomy

May. 27, 2014 Rise Set
Actual Time 5:27 AM EDT 8:17 PM EDT
Civil Twilight 4:54 AM EDT 8:49 PM EDT
Nautical Twilight 4:14 AM EDT 9:30 PM EDT
Astronomical Twilight 3:27 AM EDT 10:17 PM EDT
Moon 4:48 AM EDT (5/27) 7:16 PM EDT (5/27)
Length of Visible Light 15h 54m
Length of Day
14h 49m
Waning Crescent, 1% of the Moon is Illuminated
May 27
Waning Crescent
May 28
New
Jun 5
First Quarter
Jun 13
Full
Jun 19
Last Quarter

Hourly Weather History & Observations

Time (EDT) Temp. Heat Index Dew Point Humidity Pressure Visibility Wind Dir Wind Speed Gust Speed Precip Events Conditions
12:56 AM 73.0 °F - 52.0 °F 48% 29.87 in 10.0 mi WNW 8.1 mph - N/A   Clear
1:56 AM 71.1 °F - 53.1 °F 53% 29.87 in 10.0 mi Calm Calm - N/A   Clear
2:56 AM 64.9 °F - 54.0 °F 68% 29.87 in 10.0 mi Calm Calm - N/A   Clear
3:56 AM 66.0 °F - 54.0 °F 65% 29.87 in 10.0 mi West 3.5 mph - N/A   Clear
4:56 AM 64.0 °F - 54.0 °F 70% 29.87 in 10.0 mi WNW 3.5 mph - N/A   Clear
5:56 AM 64.0 °F - 57.0 °F 78% 29.87 in 10.0 mi NW 6.9 mph - N/A   Clear
6:56 AM 66.9 °F - 57.0 °F 70% 29.88 in 10.0 mi NW 8.1 mph - N/A   Clear
7:56 AM 70.0 °F - 54.0 °F 57% 29.87 in 10.0 mi West 4.6 mph - N/A   Mostly Cloudy
8:56 AM 72.0 °F - 55.0 °F 55% 29.88 in 10.0 mi WNW 6.9 mph - N/A   Mostly Cloudy
9:56 AM 75.0 °F - 55.0 °F 50% 29.86 in 10.0 mi WNW 4.6 mph - N/A   Scattered Clouds
10:56 AM 78.1 °F - 55.9 °F 46% 29.86 in 10.0 mi Variable 5.8 mph - N/A   Scattered Clouds
11:56 AM 82.9 °F 82.1 °F 55.9 °F 39% 29.85 in 10.0 mi NW 8.1 mph - N/A   Scattered Clouds
12:56 PM 81.0 °F 80.5 °F 54.0 °F 39% 29.83 in 10.0 mi Variable 4.6 mph - N/A   Mostly Cloudy
1:56 PM 82.9 °F 82.0 °F 55.0 °F 38% 29.81 in 10.0 mi West 3.5 mph - N/A   Mostly Cloudy
2:56 PM 82.0 °F 81.6 °F 55.9 °F 41% 29.80 in 10.0 mi SSW 3.5 mph - N/A   Mostly Cloudy
3:56 PM 82.9 °F 82.6 °F 57.9 °F 42% 29.78 in 10.0 mi SW 5.8 mph - N/A   Mostly Cloudy
4:56 PM 84.0 °F 83.3 °F 57.0 °F 40% 29.75 in 10.0 mi Variable 5.8 mph - N/A   Clear
5:56 PM 82.9 °F 82.4 °F 57.0 °F 41% 29.75 in 10.0 mi Variable 5.8 mph - N/A   Clear
6:56 PM 80.6 °F 81.5 °F 60.8 °F 51% 29.75 in 10.0 mi Variable 6.9 mph - N/A   Scattered Clouds
7:56 PM 79.0 °F - 62.1 °F 56% 29.75 in 10.0 mi West 9.2 mph 18.4 mph N/A   Scattered Clouds
8:56 PM 78.1 °F - 62.1 °F 58% 29.77 in 10.0 mi West 6.9 mph - N/A   Clear
9:56 PM 75.9 °F - 62.1 °F 62% 29.79 in 10.0 mi WSW 3.5 mph - N/A   Clear
10:56 PM 64.0 °F - 57.9 °F 80% 29.81 in 9.0 mi SE 5.8 mph - N/A   Scattered Clouds
11:56 PM 62.1 °F - 57.0 °F 84% 29.81 in 8.0 mi ESE 5.8 mph - N/A   Mostly Cloudy